Weather History for Oscoda, MI

Change the Weather History Date:

Saturday, December 29, 2012

  Actual Average Record
Temperature  
Mean Temperature 20 °F -  
Max Temperature 27 °F 29 °F 42 °F (2003)
Min Temperature 13 °F 14 °F 3 °F (1999)
Degree Days  
Heating Degree Days 45    
Moisture  
Dew Point 19 °F    
Average Humidity 84    
Maximum Humidity 94    
Minimum Humidity 72    
Precipitation  
Precipitation 0.00 in - - ()
Sea Level Pressure  
Sea Level Pressure 29.89 in    
Wind  
Wind Speed 5 mph (NW)    
Max Wind Speed 14 mph    
Max Gust Speed 20 mph    
Visibility 9 miles    
Events Snow    
Averages and records for this station are not official NWS values.
T = Trace of Precipitation, MM = Missing Value Source: NWS Daily Summary

Daily Weather History Graph

Daily Weather History Graph

Search for Another Location

Airport:

Trip Planner

Search our weather history database for the weather conditions in past years. The results will help you decide how hot, cold, wet, or windy it might be!

Date:

Astronomy

Dec. 29, 2012 Rise Set
Actual Time 8:09 AM EST 5:02 PM EST
Civil Twilight 7:36 AM EST 5:35 PM EST
Nautical Twilight 6:59 AM EST 6:12 PM EST
Astronomical Twilight 6:24 AM EST 6:47 PM EST
Moon 6:38 PM EST (12/29) 8:38 AM EST (12/29)
Length of Visible Light 9h 59m
Length of Day
8h 52m
Full, 98% of the Moon is Illuminated
Dec 29
Full
Jan 4
Last Quarter
Jan 11
New
Jan 18
First Quarter
Jan 26
Full

Hourly Weather History & Observations

Time (EST) Temp. Windchill Dew Point Humidity Pressure Visibility Wind Dir Wind Speed Gust Speed Precip Events Conditions
12:13 AM 16.0 °F - 14.5 °F 94% 29.97 in 10.0 mi Calm Calm - N/A   Clear
12:34 AM 13.5 °F - 11.1 °F 90% 29.95 in 10.0 mi Calm Calm - N/A   Mostly Cloudy
12:54 AM 14.0 °F - 12.2 °F 93% 29.94 in 10.0 mi Calm Calm - N/A   Overcast
1:13 AM 14.9 °F - 13.1 °F 93% 29.94 in 10.0 mi Calm Calm - N/A   Overcast
1:34 AM 13.5 °F - 11.1 °F 90% 29.93 in 10.0 mi Calm Calm - N/A   Overcast
1:54 AM 15.4 °F 9.8 °F 13.5 °F 92% 29.93 in 10.0 mi SW 3.5 mph - N/A   Overcast
2:14 AM 15.6 °F 10.0 °F 13.6 °F 92% 29.93 in 10.0 mi WSW 3.5 mph - N/A   Overcast
2:34 AM 15.8 °F 7.2 °F 13.6 °F 91% 29.92 in 10.0 mi SW 5.8 mph - N/A   Overcast
2:54 AM 16.3 °F 10.8 °F 14.2 °F 91% 29.92 in 10.0 mi West 3.5 mph - N/A   Overcast
3:14 AM 17.2 °F - 14.9 °F 91% 29.92 in 10.0 mi Calm Calm - N/A   Overcast
3:34 AM 18.0 °F - 15.8 °F 91% 29.91 in 10.0 mi Calm Calm - N/A   Overcast
3:53 AM 17.8 °F - 15.6 °F 91% 29.90 in 10.0 mi Calm Calm - N/A   Overcast
4:14 AM 19.2 °F - 17.1 °F 91% 29.90 in 10.0 mi Calm Calm - N/A   Overcast
4:34 AM 19.9 °F 12.1 °F 17.6 °F 91% 29.89 in 10.0 mi WNW 5.8 mph - N/A   Overcast
4:53 AM 20.7 °F 11.9 °F 18.5 °F 91% 29.88 in 10.0 mi NW 6.9 mph - N/A   Overcast
5:14 AM 21.2 °F 14.9 °F 18.9 °F 91% 29.88 in 10.0 mi West 4.6 mph - N/A   Overcast
5:34 AM 21.2 °F 14.9 °F 18.9 °F 91% 29.88 in 10.0 mi West 4.6 mph - N/A   Overcast
5:53 AM 21.7 °F 15.5 °F 19.4 °F 91% 29.87 in 10.0 mi West 4.6 mph - N/A   Overcast
6:14 AM 22.1 °F 15.9 °F 20.1 °F 92% 29.87 in 10.0 mi West 4.6 mph - N/A   Overcast
6:34 AM 22.1 °F 12.0 °F 20.1 °F 92% 29.86 in 7.0 mi WNW 9.2 mph - N/A Snow Light Snow
6:53 AM 23.4 °F 14.3 °F 21.2 °F 91% 29.86 in 7.0 mi WNW 8.1 mph - N/A Snow Light Snow
7:14 AM 23.7 °F 12.6 °F 21.9 °F 93% 29.86 in 4.0 mi NW 11.5 mph - N/A Snow Light Snow
7:34 AM 24.6 °F 16.7 °F 22.8 °F 93% 29.85 in 4.0 mi NNW 6.9 mph - N/A Snow Light Snow
7:53 AM 25.3 °F 16.0 °F 23.5 °F 93% 29.85 in 5.0 mi NNW 9.2 mph - N/A Snow Light Snow
8:14 AM 26.2 °F 15.8 °F 24.4 °F 93% 29.85 in 3.0 mi North 11.5 mph - N/A Snow Light Snow
8:34 AM 26.4 °F 17.3 °F 24.6 °F 93% 29.85 in 1.5 mi North 9.2 mph - N/A Snow Light Snow
8:53 AM 26.4 °F 15.0 °F 24.3 °F 92% 29.85 in 5.0 mi North 13.8 mph - N/A   Overcast
9:14 AM 26.4 °F 16.6 °F 23.7 °F 90% 29.85 in 10.0 mi North 10.4 mph - N/A   Overcast
9:34 AM 26.2 °F 17.1 °F 23.4 °F 89% 29.85 in 10.0 mi North 9.2 mph - N/A   Overcast
9:53 AM 26.2 °F 15.8 °F 23.2 °F 88% 29.86 in 10.0 mi North 11.5 mph - N/A   Overcast
10:14 AM 26.2 °F 14.7 °F 23.0 °F 88% 29.85 in 10.0 mi North 13.8 mph 19.6 mph N/A   Overcast
10:34 AM 26.6 °F 15.7 °F 23.0 °F 86% 29.86 in 10.0 mi North 12.7 mph - N/A   Overcast
10:53 AM 26.8 °F 16.5 °F 22.8 °F 85% 29.86 in 10.0 mi North 11.5 mph 19.6 mph N/A   Overcast
11:14 AM 27.1 °F 15.9 °F 23.0 °F 84% 29.86 in 10.0 mi North 13.8 mph - N/A   Overcast
11:34 AM 27.1 °F 18.2 °F 22.6 °F 83% 29.85 in 10.0 mi North 9.2 mph - N/A   Overcast
11:53 AM 27.3 °F 17.1 °F 22.8 °F 83% 29.84 in 10.0 mi North 11.5 mph - N/A   Overcast
12:14 PM 27.5 °F 17.4 °F 22.8 °F 83% 29.84 in 7.0 mi North 11.5 mph - N/A   Overcast
12:34 PM 27.3 °F 16.6 °F 22.8 °F 83% 29.83 in 5.0 mi North 12.7 mph - N/A   Overcast
12:53 PM 27.0 °F 16.1 °F 22.5 °F 83% 29.83 in 5.0 mi North 12.7 mph 19.6 mph N/A   Haze
1:14 PM 27.1 °F 18.2 °F 22.1 °F 81% 29.83 in 7.0 mi North 9.2 mph - N/A   Overcast
1:34 PM 27.1 °F 16.9 °F 21.7 °F 80% 29.84 in 5.0 mi North 11.5 mph - N/A Snow Light Snow
1:54 PM 27.5 °F 18.0 °F 22.1 °F 80% 29.83 in 7.0 mi NNW 10.4 mph - N/A Snow Light Snow
2:14 PM 27.0 °F 18.0 °F 22.1 °F 82% 29.84 in 7.0 mi NNW 9.2 mph - N/A   Overcast
2:33 PM 27.0 °F 18.7 °F 21.6 °F 80% 29.85 in 7.0 mi North 8.1 mph - N/A   Overcast
2:54 PM 27.1 °F 18.2 °F 20.5 °F 76% 29.85 in 10.0 mi NNW 9.2 mph - N/A   Overcast
3:14 PM 27.0 °F 18.7 °F 20.7 °F 77% 29.85 in 10.0 mi North 8.1 mph - N/A   Overcast
3:33 PM 26.6 °F 16.8 °F 20.3 °F 77% 29.86 in 10.0 mi NNW 10.4 mph - N/A   Overcast
3:54 PM 26.6 °F 20.0 °F 20.3 °F 77% 29.87 in 10.0 mi NNW 5.8 mph - N/A   Overcast
4:14 PM 26.6 °F 18.2 °F 20.5 °F 78% 29.87 in 10.0 mi NNW 8.1 mph - N/A   Overcast
4:33 PM 26.6 °F 16.2 °F 19.0 °F 73% 29.88 in 10.0 mi NNW 11.5 mph - N/A   Overcast
4:54 PM 26.2 °F 17.1 °F 18.7 °F 73% 29.88 in 10.0 mi NNW 9.2 mph - N/A   Overcast
5:14 PM 26.2 °F 15.8 °F 18.9 °F 74% 29.90 in 10.0 mi NNW 11.5 mph - N/A   Overcast
5:33 PM 25.7 °F 17.1 °F 18.5 °F 74% 29.90 in 10.0 mi NNW 8.1 mph - N/A   Overcast
5:54 PM 25.3 °F 16.7 °F 18.3 °F 75% 29.91 in 10.0 mi NW 8.1 mph - N/A   Overcast
6:14 PM 25.3 °F 17.6 °F 18.3 °F 75% 29.91 in 10.0 mi NW 6.9 mph - N/A   Overcast
6:33 PM 24.8 °F 15.3 °F 17.4 °F 74% 29.93 in 10.0 mi NW 9.2 mph - N/A   Overcast
6:54 PM 24.8 °F 16.9 °F 17.8 °F 75% 29.93 in 10.0 mi NW 6.9 mph - N/A   Overcast
7:14 PM 25.0 °F 14.2 °F 18.0 °F 75% 29.93 in 10.0 mi WNW 11.5 mph 16.1 mph N/A   Overcast
7:33 PM 24.8 °F 12.9 °F 16.9 °F 72% 29.94 in 10.0 mi NNW 13.8 mph 17.3 mph N/A   Overcast
7:54 PM 23.7 °F 13.3 °F 16.3 °F 73% 29.94 in 10.0 mi NW 10.4 mph - N/A   Overcast
8:14 PM 23.2 °F 13.3 °F 16.3 °F 75% 29.94 in 10.0 mi NNW 9.2 mph - N/A   Overcast
8:33 PM 22.5 °F 11.7 °F 15.3 °F 74% 29.95 in 10.0 mi NNW 10.4 mph - N/A   Mostly Cloudy
8:54 PM 21.7 °F 13.2 °F 14.9 °F 75% 29.95 in 10.0 mi NW 6.9 mph - N/A   Mostly Cloudy
9:14 PM 21.0 °F 13.4 °F 15.1 °F 78% 29.95 in 10.0 mi WNW 5.8 mph - N/A   Mostly Cloudy
9:33 PM 22.1 °F 13.7 °F 15.4 °F 76% 29.96 in 10.0 mi NW 6.9 mph - N/A   Overcast
9:54 PM 21.2 °F 16.4 °F 14.9 °F 77% 29.96 in 10.0 mi WNW 3.5 mph - N/A   Overcast
10:14 PM 20.1 °F 13.6 °F 14.4 °F 78% 29.96 in 10.0 mi WNW 4.6 mph - N/A   Scattered Clouds
10:34 PM 20.1 °F 15.2 °F 14.7 °F 80% 29.97 in 10.0 mi WNW 3.5 mph - N/A   Mostly Cloudy
10:54 PM 20.5 °F 11.7 °F 15.3 °F 80% 29.97 in 10.0 mi WNW 6.9 mph - N/A   Overcast
11:14 PM 20.7 °F 14.2 °F 15.4 °F 80% 29.98 in 10.0 mi WNW 4.6 mph - N/A   Overcast
11:34 PM 19.6 °F 11.7 °F 14.7 °F 81% 29.98 in 10.0 mi West 5.8 mph - N/A   Mostly Cloudy
11:54 PM 18.0 °F 9.8 °F 13.8 °F 84% 29.98 in 10.0 mi West 5.8 mph - N/A   Scattered Clouds